Barrow, AK

11:41 PM AKDT on August 30, 2016 (GMT -0800)
Wiley Post-Will Rogers Memorial

Weather History for PABR - June, 2013

Change the Weather History Date:

Tuesday, June 18, 2013

  Actual Average Record
Temperature  
Mean Temperature 45 °F 37 °F  
Max Temperature 53 °F 42 °F 72 °F (1996)
Min Temperature 37 °F 32 °F 22 °F (1924)
Degree Days  
Heating Degree Days 20 28  
Month to date heating degree days 486 565  
Since 1 June heating degree days 486 565  
Since 1 July heating degree days 17921 19072  
Cooling Degree Days 0    
Month to date cooling degree days 0  
Year to date cooling degree days 0  
Since 1 June cooling degree days 0  
Moisture  
Dew Point 37 °F    
Average Humidity 0    
Maximum Humidity 0    
Minimum Humidity 0    
Precipitation  
Precipitation 0.00 in 0.01 in 0.20 in (1922)
Month to date precipitation 0.51 0.15  
Year to date precipitation 1.73 0.85  
Snow  
Snow 0.00 in 0.00 in 0.50 in (1994)
Month to date snowfall 0.2 0.6  
Since 1 June snowfall 0.2 0.6  
Since 1 July snowfall 62.7 37.6  
Snow Depth 0.00 in    
Sea Level Pressure  
Sea Level Pressure 30.23 in    
Wind  
Wind Speed 11 mph (East)    
Max Wind Speed 14 mph    
Max Gust Speed 17 mph    
Visibility 10 miles    
Events      
T = Trace of Precipitation, MM = Missing Value Source: NWS Daily Summary

Daily Weather History Graph

Daily Weather History Graph

Search for Another Location

Airport or City:

Trip Planner

Search our weather history database for the weather conditions in past years. The results will help you decide how hot, cold, wet, or windy it might be!

Date:

Astronomy

Dec. 31, 1969 Rise Set
Actual Time Sun does not set Sun does not set
Civil Twilight Sun does not set Sun does not set
Nautical Twilight Sun does not set Sun does not set
Astronomical Twilight Sun does not set Sun does not set
Moon 7:00 PM AKDT (6/18) 1:45 AM AKDT (6/18)
Length of Visible Light 24h 00m
Length of Day
24h 00m
Waxing Gibbous, 72% of the Moon is Illuminated
Jun 18
Waxing Gibbous
Jun 23
Full
Jun 29
Last Quarter
Jul 7
New
Jul 15
First Quarter

Hourly Weather History & Observations

Time (AKDT) Temp. Windchill Dew Point Humidity Pressure Visibility Wind Dir Wind Speed Gust Speed Precip Events Conditions
12:53 AM 41.0 °F 34.7 °F 33.1 °F 73% 30.33 in 10.0 mi East 10.4 mph - N/A   Mostly Cloudy
1:53 AM 39.0 °F 32.8 °F 32.0 °F 76% 30.32 in 10.0 mi East 9.2 mph - N/A   Mostly Cloudy
2:53 AM 37.0 °F 28.9 °F 30.9 °F 79% 30.32 in 10.0 mi East 12.7 mph - N/A   Mostly Cloudy
3:53 AM 37.9 °F 30.5 °F 30.9 °F 76% 30.31 in 10.0 mi ESE 11.5 mph - N/A   Mostly Cloudy
4:53 AM 39.9 °F 33.4 °F 33.1 °F 77% 30.30 in 10.0 mi ESE 10.4 mph - N/A   Mostly Cloudy
5:53 AM 43.0 °F 37.2 °F 34.0 °F 71% 30.29 in 10.0 mi ESE 10.4 mph - N/A   Scattered Clouds
6:53 AM 45.0 °F 40.1 °F 36.0 °F 71% 30.28 in 10.0 mi East 9.2 mph - N/A   Scattered Clouds
7:53 AM 46.0 °F 42.5 °F 37.0 °F 71% 30.27 in 10.0 mi East 6.9 mph - N/A   Partly Cloudy
8:53 AM 48.0 °F - 37.9 °F 68% 30.27 in 10.0 mi ENE 8.1 mph - N/A   Partly Cloudy
9:53 AM 51.1 °F - 39.9 °F 66% 30.25 in 10.0 mi East 6.9 mph - N/A   Partly Cloudy
10:53 AM 52.0 °F - 41.0 °F 66% 30.25 in 10.0 mi ENE 8.1 mph - N/A   Partly Cloudy
11:53 AM 48.0 °F - 37.9 °F 68% 30.25 in 10.0 mi ENE 12.7 mph - N/A   Partly Cloudy
12:53 PM 48.9 °F - 37.9 °F 66% 30.24 in 10.0 mi East 12.7 mph - N/A   Partly Cloudy
1:53 PM 50.0 °F - 39.0 °F 66% 30.22 in 10.0 mi East 12.7 mph - N/A   Partly Cloudy
2:53 PM 53.1 °F - 41.0 °F 64% 30.21 in 10.0 mi East 11.5 mph - N/A   Partly Cloudy
3:53 PM 53.1 °F - 39.9 °F 61% 30.20 in 10.0 mi East 10.4 mph - N/A   Partly Cloudy
4:53 PM 51.1 °F - 39.0 °F 63% 30.18 in 10.0 mi East 11.5 mph - N/A   Scattered Clouds
5:53 PM 48.9 °F - 37.9 °F 66% 30.17 in 10.0 mi ENE 12.7 mph - N/A   Scattered Clouds
6:53 PM 50.0 °F - 37.0 °F 61% 30.16 in 10.0 mi East 12.7 mph - N/A   Scattered Clouds
7:53 PM 48.0 °F - 37.9 °F 68% 30.15 in 10.0 mi East 10.4 mph - N/A   Scattered Clouds
8:53 PM 48.9 °F - 37.9 °F 66% 30.14 in 10.0 mi East 9.2 mph - N/A   Scattered Clouds
9:53 PM 45.0 °F 39.3 °F 36.0 °F 71% 30.13 in 10.0 mi ENE 11.5 mph - N/A   Partly Cloudy
10:53 PM 46.0 °F 41.9 °F 36.0 °F 68% 30.13 in 10.0 mi East 8.1 mph - N/A   Partly Cloudy
11:53 PM 42.1 °F 35.7 °F 33.1 °F 70% 30.12 in 10.0 mi East 11.5 mph - N/A   Scattered Clouds